Home > Weather > Tokyo > Past weeks

Flag for Japan Weather for the Past 2 Weeks in Tokyo, Japan

Now
37 °F

Chilly.


Feels Like: 32 °F
Forecast: 34 / 44 °F
Wind: 6 mph from North

Location: Tokyo

Current Time: Feb 7, 2016 at 8:35:46 AM

Latest Report: Feb 7, 2016 at 7:00 AM


Visibility: N/A

Pressure: 29.96 "Hg

Humidity: 56%

Dew point: 22 °F

Location of TokyoLocation

Historic Weather in Tokyo — Graph

°F

Tokyo Temperature Yesterday

Maximum temperature yesterday: 48 °F (at 3:00 PM)
Minimum temperature yesterday: 41 °F (at 5:00 AM)
Average temperature yesterday: 44 °F

High & Low Weather Summary for the Past Weeks

 TemperatureHumidityPressure
High55 °F (Jan 27, 1:00 PM)95% (Jan 30, 3:00 AM)30.34 "Hg (Jan 30, 3:00 AM)
Low28 °F (Jan 25, 6:00 AM)13% (Jan 24, 3:00 PM)29.54 "Hg (Jan 24, 1:00 PM)
Average41 °F57%30.08 "Hg
* Reported Jan 23 6:00 AM — Feb 7 6:00 AM, Tokyo, Weather by CustomWeather, © 2016

Note: Actual official high and low records may vary slightly from our data, if they occured in-between our weather recording intervals... More about our weather records

Advertising

Tokyo Weather History for the Previous 24 Hours

 ConditionsComfort  
Time TempWeatherWind HumidityBarometerVisibility
6:00 AM
Sun, Feb 7
37 °FOvercast.6 mph63%29.93 "Hg12 mi
5:00 AM36 °FChilly.6 mph72%29.91 "HgN/A
4:00 AM35 °FChilly.5 mph78%29.90 "HgN/A
3:00 AM35 °FOvercast.6 mph82%29.90 "Hg9 mi
2:00 AM36 °FChilly.7 mph80%29.93 "HgN/A
1:00 AM38 °FChilly.7 mph73%29.92 "HgN/A
12:00 AM40 °FChilly.9 mph73%29.90 "HgN/A
11:00 PM
Sat, Feb 6
42 °FQuite cool.8 mph71%29.89 "HgN/A
10:00 PM43 °FQuite cool.8 mph74%29.90 "HgN/A
9:00 PM43 °FOvercast.7 mph74%29.90 "Hg12 mi
8:00 PM43 °FQuite cool.10 mph76%29.89 "HgN/A
7:00 PM44 °FQuite cool.3 mph75%29.90 "HgN/A
6:00 PM45 °FOvercast.6 mph74%29.88 "Hg9 mi
5:00 PM46 °FCool.7 mph72%29.88 "HgN/A
4:00 PM47 °FCool.8 mph69%29.86 "HgN/A
3:00 PM48 °FOvercast.5 mph63%29.86 "Hg9 mi
2:00 PM48 °FCool.7 mph61%29.83 "HgN/A
1:00 PM48 °FCool.6 mph61%29.86 "HgN/A
12:00 PM47 °FOvercast.5 mph62%29.90 "Hg9 mi
11:00 AM46 °FCool.5 mph66%29.93 "HgN/A
10:00 AM45 °FCool.5 mph64%29.94 "HgN/A
9:00 AM44 °FOvercast.3 mph66%29.93 "Hg9 mi
8:00 AM43 °FQuite cool.5 mph68%29.92 "HgN/A
Weather by CustomWeather, © 2016

See weather overviewHow to use our weather pages